Location: Rye
(30.7294°N, 96.4902°W)
Time: 10:16:26
(UTC+00:00)

Tiros 1 despin weight - Pass Details

Date: 05 December 2025
Orbit: 557 x 596 km, 48.2° (Epoch: 17 January)

Event Time Altitude Azimuth Distance (km) Brightness Sun altitude
Rises 01:59:39 0° 232° (SW) 2,764 ? -32.7°
Reaches altitude 10° 02:01:56 10° 234° (SW) 1,862 ? -33.2°
Enters shadow 02:03:06 18° 236° (SW) 1,411 ? -33.4°
